Terminal Aerodrome Forecast
Issued by NWS

Current Version | Previous Version | Graphics & Text | Print | Product List | Glossary On
Versions: 1 2 3 4 5 6 7 8 9 10 11 12 13 14 15 16 17 18 19 20 21 22 23 24 25
000
FTUS41 KILN 182300
TAFLUK
TAF
KLUK 182331Z 1900/1924 00000KT P6SM VCSH SCT050 BKN120
     FM190400 00000KT 4SM BR SCT250
     FM190800 00000KT 1SM BR FEW001 BKN250
     FM191200 VRB03KT 2SM BR BKN250
     FM191400 23004KT P6SM BKN250
     FM191700 22007KT P6SM BKN045=

USA.gov is the U.S. government's official web portal to all federal, state and local government web resources and services.